STARLINK-2178, 47760

Orbit data source: Space-Track

STARLINK-2178, 47760 is a payload satellite owned by SpaceX/Seattle (US) in LEO that was launched on Thu, 04 Mar 2021 UTC via an FALCON 9 launch vehicle from the Air Force Eastern Test Range (AFETR). Payload-class satellites include a variety of spacecraft equipped with specific instruments for various scientific and technological missions. These include communications satellites like Starlink; space stations such as the ISS; scientific satellites like the Hubble; Earth observation satellites from companies like Planet Labs, Umbra, and HawkEye 360; GPS; miniature CubeSats for education and research; and military/defense satellites.

Loading next visibility...
Identifier
47760, 2021-017AQ
Orbit
LEO
Country
Flag of USUS
Related business
Manufacturer
SpaceX/Seattle
Mission
Operational Commercial Communications
Bus & Motor
STARLINK, Unknown motor
Mass
260 kg wet, ~248 kg dry
Launch date (UTC)
2021-03-04 (5 years ago)
Launch vehicle
FALCON 9
Launch site
Air Force Eastern Test Range (AFETR)
Object type
Payload
Rocket body
Debris
Shape & HBR
Box + 1 Pan, 10.1 m
Radar Cross Section
13.562 m², Large (>1 m²)

Expand to show TLE details & history
Last TLE update: 13 hours ago

TLE from 13 hours ago
0 STARLINK-2178
1 47760U 21017AQ  25346.96235938  .00002330  00000-0  17533-3 0  9990
2 47760  53.0541 250.9496 0001149 112.8376 247.2735 15.06385833264545
Epoch: 2025-12-12T23:05Z
TLE epoch observation values (Epoch: 2025-12-12T23:05:47.850Z)
Latitude
0.00003°
Longitude
-177.39621°
Altitude
548.442 km
Speed
7.589 km/s
True Right ascension
16h 43m 47s
True Declination
0° 00' 00"
Sunlit
Object was in daylight at epoch
Visualization orbit readout
Latitude
Unknown
Longitude
Unknown
Altitude
Unknown
Speed
Unknown
Apparent Right ascension
Unknown
Apparent Declination
Unknown
Sunlit
N/A
Visualization observer readout
Local Sidereal Time
11:02:11
Azimuth
Unknown
Elevation
Unknown
Doppler factor
Unknown
Orbital elements
Apogee altitude
548.322 km
Perigee altitude
546.73 km
Semi-major axis
6,925.663 km
Eccentricity
0.00011
Inclination
53.0541°
RAAN
250.9496°
Arg. of periapsis
112.8376°
True anomaly
247.26136°
Mean anomaly
247.2735°
Eccentric anomaly
247.26743°
Mean motion
3.76575 °/min
Orbital period
95.6 mins
BSTAR
0.00017533
Loading maneuver chart data...
Computing Atmospheric mass density...
Loading historical data...
Loading historical data...
Loading historical data...
Loading historical data...
Loading historical data...
Loading historical data...
Loading historical data...

Documentation

Showing up to 5 results
|